Beaufort MCAS, SC

1:59 AM EDT on March 23, 2017 (GMT -0400)
Beaufort Marine Corps Air Station

Weather History for KNBC - March, 2013

Change the Weather History Date:

Saturday, March 2, 2013

  Actual Average Record
Temperature  
Mean Temperature 43 °F -  
Max Temperature 50 °F 66 °F 84 °F (1951)
Min Temperature 36 °F 43 °F 22 °F (1980)
Degree Days  
Heating Degree Days 22    
Moisture  
Dew Point 29 °F    
Average Humidity 57    
Maximum Humidity 73    
Minimum Humidity 41    
Precipitation  
Precipitation 0.00 in - - ()
Sea Level Pressure  
Sea Level Pressure 29.94 in    
Wind  
Wind Speed 10 mph (WNW)    
Max Wind Speed 16 mph    
Max Gust Speed 26 mph    
Visibility 10 miles    
Events      
Averages and records for this station are not official NWS values.
T = Trace of Precipitation, MM = Missing Value Source: NWS Daily Summary

Daily Weather History Graph

Daily Weather History Graph

Search for Another Location

Airport or City:

Trip Planner

Search our weather history database for the weather conditions in past years. The results will help you decide how hot, cold, wet, or windy it might be!

Date:

Astronomy

Mar. 02, 2013 Rise Set
Actual Time 6:49 AM EST 6:21 PM EST
Civil Twilight 6:24 AM EST 6:45 PM EST
Nautical Twilight 5:55 AM EST 7:14 PM EST
Astronomical Twilight 5:27 AM EST 7:42 PM EST
Moon 11:37 PM EST (3/2) 9:35 AM EST (3/2)
Length of Visible Light 12h 21m
Length of Day
11h 32m
Waning Gibbous, 74% of the Moon is Illuminated
Mar 2
Waning Gibbous
Mar 4
Last Quarter
Mar 11
New
Mar 19
First Quarter
Mar 27
Full

Hourly Weather History & Observations

Time (EST) Temp. Windchill Dew Point Humidity Pressure Visibility Wind Dir Wind Speed Gust Speed Precip Events Conditions
12:56 AM 43.0 °F 38.2 °F 30.0 °F 60% 29.97 in 10.0 mi NW 8.1 mph - N/A   Partly Cloudy
1:56 AM 43.0 °F 37.7 °F 30.0 °F 60% 29.96 in 10.0 mi NW 9.2 mph - N/A   Overcast
2:56 AM 41.0 °F 34.3 °F 30.0 °F 65% 29.95 in 10.0 mi WNW 11.5 mph - N/A   Scattered Clouds
3:56 AM 39.0 °F 34.0 °F 28.9 °F 67% 29.94 in 10.0 mi WNW 6.9 mph - N/A   Clear
4:56 AM 39.0 °F 34.0 °F 28.0 °F 65% 29.95 in 10.0 mi WNW 6.9 mph - N/A   Clear
5:56 AM 36.0 °F 30.3 °F 28.0 °F 73% 29.95 in 10.0 mi West 6.9 mph - N/A   Clear
6:56 AM 36.0 °F 31.1 °F 28.0 °F 73% 29.95 in 10.0 mi West 5.8 mph - N/A   Clear
7:56 AM 39.9 °F 33.4 °F 28.9 °F 65% 29.96 in 10.0 mi West 10.4 mph - N/A   Clear
8:56 AM 43.0 °F 37.2 °F 30.9 °F 62% 29.95 in 10.0 mi WNW 10.4 mph - N/A   Clear
9:56 AM 46.9 °F - 30.0 °F 52% 29.94 in 10.0 mi West 15.0 mph 20.7 mph N/A   Clear
10:56 AM 50.0 °F - 28.0 °F 43% 29.94 in 10.0 mi West 12.7 mph 24.2 mph N/A   Scattered Clouds
11:56 AM 48.0 °F - 27.0 °F 44% 29.93 in 10.0 mi WNW 16.1 mph 24.2 mph N/A   Mostly Cloudy
12:56 PM 48.9 °F - 26.1 °F 41% 29.91 in 10.0 mi West 16.1 mph 26.5 mph N/A   Mostly Cloudy
1:56 PM 48.0 °F - 27.0 °F 44% 29.89 in 10.0 mi WNW 16.1 mph 23.0 mph N/A   Overcast
2:56 PM 48.0 °F - 28.9 °F 48% 29.90 in 10.0 mi West 13.8 mph 21.9 mph N/A   Overcast
3:56 PM 46.9 °F - 28.0 °F 48% 29.90 in 10.0 mi NW 10.4 mph - N/A   Overcast
4:56 PM 46.9 °F - 28.9 °F 50% 29.91 in 10.0 mi NW 11.5 mph - N/A   Overcast
5:56 PM 46.0 °F 43.1 °F 30.0 °F 54% 29.92 in 10.0 mi WNW 5.8 mph - N/A   Mostly Cloudy
6:56 PM 45.0 °F 40.6 °F 30.0 °F 56% 29.94 in 10.0 mi WNW 8.1 mph - N/A   Overcast
7:56 PM 44.1 °F 40.8 °F 30.9 °F 60% 29.95 in 10.0 mi West 5.8 mph - N/A   Overcast
8:56 PM 43.0 °F 38.2 °F 28.9 °F 58% 29.96 in 10.0 mi West 8.1 mph - N/A   Scattered Clouds
9:56 PM 41.0 °F 35.8 °F 28.9 °F 62% 29.97 in 10.0 mi West 8.1 mph - N/A   Clear
10:56 PM 42.1 °F 36.6 °F 27.0 °F 55% 29.97 in 10.0 mi WNW 9.2 mph - N/A   Overcast
11:56 PM 41.0 °F 34.7 °F 25.0 °F 53% 29.97 in 10.0 mi WNW 10.4 mph 17.3 mph N/A   Mostly Cloudy